Regional Weather Roundup
Issued by NWS

Home | Current Version | Previous Version | Graphics & Text | Print | Product List | Glossary On
Versions: 1 2 3 4 5 6 7 8 9 10 11 12 13 14 15 16 17 18 19 20 21 22 23 24 25 26 27 28 29 30 31 32 33 34 35 36 37 38 39 40 41 42 43 44 45 46 47 48 49 50
000
ASUS43 KLSX 291857
RWRMO

WEATHER SUMMARY FOR MISSOURI
NATIONAL WEATHER SERVICE SPRINGFIELD MO
200 PM CDT WED MAR 29 2017

NOTE: "FAIR" INDICATES FEW OR NO CLOUDS BELOW 12,000 FEET WITH NO
       SIGNIFICANT WEATHER AND/OR OBSTRUCTIONS TO VISIBILITY.
       CURRENT SKY AND/OR WEATHER CONDITIONS ARE NOT AVAILABLE FOR
       CHILLICOTHE AND FARMINGTON.

MOZ001>031-035>038-043-044-053-054-292000-
...NORTHERN AND WESTERN MISSOURI...

CITY           SKY/WX    TMP DP  RH WIND       PRES   REMARKS
KANSAS CTY INT CLOUDY    52  50  93 E18       29.73F
LEE`S SUMMIT   CLOUDY    57  55  93 E16G24    29.71F
ST JOSEPH      CLOUDY    50  48  93 E13       29.76F
CHILLICOTHE      N/A     51  48  89 E15G29    29.81F

$$
MOZ066>068-077>081-088>096-101>105-292000-
...SOUTHWEST MISSOURI...

CITY           SKY/WX    TMP DP  RH WIND       PRES   REMARKS
SPRINGFIELD    PTSUNNY   69  58  67 S24G31    29.70F
JOPLIN         CLOUDY    70  56  61 S18G30    29.68R
BRANSON        PTSUNNY   70  59  68 SE22G29   29.75F

$$
MOZ032>034-039>042-045>050-055>058-069>072-292000-
...CENTRAL MISSOURI...

CITY           SKY/WX    TMP DP  RH WIND       PRES   REMARKS
COLUMBIA       NOT AVBL
JEFFERSON CITY PTSUNNY   59  52  77 E21G29    29.79F
ROLLA          CLOUDY    66  56  70 E20       29.81F
SEDALIA        CLOUDY    57  56  96 E20G29    29.74F
WARRENSBURG    CLOUDY    55  55 100 E14       29.71F

$$
MOZ051-052-059>065-292000-
...EAST CENTRAL MISSOURI...

CITY           SKY/WX    TMP DP  RH WIND       PRES   REMARKS
ST LOUIS INTL  CLOUDY    60  51  72 E23G29    29.91F

$$
MOZ072>076-082>087-097>100-106>115-292000-
...SOUTH CENTRAL AND SOUTHEAST MISSOURI...

CITY           SKY/WX    TMP DP  RH WIND       PRES   REMARKS
CAPE GIRARDEAU CLOUDY    69  57  65 SE14      29.91F
POPLAR BLUFF   CLOUDY    70  62  76 SE13      29.86F
WEST PLAINS    CLOUDY    68  58  70 SE12G21   29.83S

$$


USA.gov is the U.S. government's official web portal to all federal, state and local government web resources and services.